This demonstration page uses our WeatherBlox Daily Observations layout. Learn more.

Left ArrowRight Arrow

Hourly Observations for May 30, 2015

Temp ( °F °C ) Dew Point ( °F °C ) Humidity (%) Winds ( mph kmh ) Pressure ( in mb ) Visibility ( mi km ) Precip ( " mm )
12:58 am 00:58 Cloudy 55 12.5 51 10.4 87 87 NNW 12 19 30.07 1018 10 16 0.00 0.00
1:58 am 01:58 Cloudy 54 12.1 50 9.9 87 87 NNW 10 17 30.07 1018 10 16 0.00 0.00
2:58 am 02:58 Cloudy 53 11.4 49 9.2 86 86 NNW 16 26 30.08 1019 10 16 0.00 0.00
3:58 am 03:58 Cloudy 51 10.8 47 8.5 86 86 N 15 24 30.09 1019 10 16 0.00 0.00
4:46 am 04:46 Cloudy 52 11 46 8 82 82 NNW 9 15 30.09 1019 10 16 0.00 0.00
4:58 am 04:58 Cloudy 52 11 47 8.1 82 82 NNW 13 20 30.10 1019 10 16 0.00 0.00
5:21 am 05:21 Cloudy 52 11 46 8 82 82 NNW 15 24 30.09 1019 10 16 0.00 0.00
5:58 am 05:58 Mostly Cloudy 51 10.8 47 8.5 86 86 NNW 12 19 30.10 1019 10 16 0.00 0.00
5:59 am 05:59 Cloudy 52 11 48 9 88 88 NNW 13 20 30.09 1019 10 16 0.00 0.00
6:07 am 06:07 Cloudy 52 11 48 9 88 88 NNW 15 24 30.09 1019 10 16 0.00 0.00
6:48 am 06:48 Cloudy 52 11 48 9 88 88 N 10 17 30.12 1020 10 16 0.00 0.00
6:58 am 06:58 Cloudy 51 10.7 48 8.9 89 89 N 12 19 30.11 1020 10 16 0.00 0.00
7:13 am 07:13 Cloudy 52 11 48 9 88 88 NNW 9 15 30.12 1020 10 16 0.00 0.00
7:43 am 07:43 Mostly Cloudy 52 11 48 9 88 88 NNW 15 24 30.12 1020 10 16 0.00 0.00
7:53 am 07:53 Mostly Cloudy 54 12 48 9 82 82 NNW 12 19 30.15 1021 10 16 0.00 0.00
7:54 am 07:54 Mostly Cloudy 54 12 48 9 82 82 NNW 10 17 30.15 1021 10 16 0.00 0.00
7:58 am 07:58 Mostly Cloudy 53 11.6 47 8.6 82 82 NNW 13 20 30.15 1021 10 16 0.00 0.00
8:10 am 08:10 Cloudy 54 12 46 8 77 77 NNW 7 11 30.15 1021 10 16 0.00 0.00
8:34 am 08:34 Cloudy 54 12 46 8 77 77 N 12 19 30.15 1021 10 16 0.00 0.00
8:58 am 08:58 Cloudy 54 12 47 8.4 79 79 N 10 17 30.17 1022 10 16 0.00 0.00
9:58 am 09:58 Cloudy 55 12.7 47 8.4 75 75 N 12 19 30.18 1022 10 16 0.00 0.00
10:13 am 10:13 Cloudy 55 13 46 8 72 72 N 16 26 30.18 1022 10 16 0.00 0.00
10:58 am 10:58 Cloudy 56 13.4 48 8.9 74 74 N 9 15 30.19 1022 10 16 0.00 0.00
11:58 am 11:58 Cloudy 57 13.8 48 8.7 72 72 N 8 13 30.19 1022 10 16 0.00 0.00
12:16 pm 12:16 Mostly Cloudy 59 15 48 9 68 68 N 14 22 30.18 1022 10 16 0.00 0.00
12:31 pm 12:31 Mostly Cloudy 59 15 48 9 68 68 N 13 20 30.18 1022 10 16 0.00 0.00
12:58 pm 12:58 Mostly Cloudy 60 15.7 48 8.7 63 63 N 13 20 30.20 1023 10 16 0.00 0.00
1:58 pm 13:58 Mostly Cloudy 63 17.1 47 8.4 57 57 NNW 14 22 30.18 1022 10 16 0.00 0.00
2:58 pm 14:58 Sunny 66 18.8 48 8.9 53 53 NNE 8 13 30.15 1021 10 16 0.00 0.00
3:58 pm 15:58 Sunny 67 19.7 47 8.1 47 47 VRB 7 11 30.12 1020 10 16 0.00 0.00
4:58 pm 16:58 Sunny 69 20.6 44 6.8 41 41 NNE 10 17 30.15 1021 10 16 0.00 0.00
5:58 pm 17:58 Sunny 69 20.6 44 6.6 40 40 N 12 19 30.15 1021 10 16 0.00 0.00
6:58 pm 18:58 Sunny 68 20.1 42 5.7 39 39 NNE 9 15 30.14 1021 10 16 0.00 0.00
7:58 pm 19:58 Sunny 66 18.8 42 5.6 42 42 NNE 10 17 30.16 1021 10 16 0.00 0.00
8:58 pm 20:58 Clear 62 16.5 44 6.8 53 53 NNE 6 9 30.17 1022 10 16 0.00 0.00
9:58 pm 21:58 Clear 58 14.4 46 7.7 64 64 NE 3 6 30.18 1022 10 16 0.00 0.00
10:58 pm 22:58 Clear 56 13.4 46 7.7 69 69 NNE 5 7 30.19 1023 10 16 0.00 0.00
11:58 pm 23:58 Clear 52 11.2 46 8 81 81 NE 5 7 30.20 1023 10 16 0.00 0.00

Powered by AerisWeather